Weather History for Lovelock, NV

Change the Weather History Date:

Thursday, January 10, 2013

  Actual Average Record
Temperature  
Mean Temperature 27 °F -  
Max Temperature 36 °F 41 °F 63 °F (1953)
Min Temperature 18 °F 16 °F -9 °F (1982)
Degree Days  
Heating Degree Days 38    
Moisture  
Dew Point 18 °F    
Average Humidity 67    
Maximum Humidity 81    
Minimum Humidity 50    
Precipitation  
Precipitation 0.00 in - - ()
Sea Level Pressure  
Sea Level Pressure 29.92 in    
Wind  
Wind Speed 12 mph (NW)    
Max Wind Speed 18 mph    
Max Gust Speed 25 mph    
Visibility 10 miles    
Events Snow    
Averages and records for this station are not official NWS values.
T = Trace of Precipitation, MM = Missing Value Source: NWS Daily Summary

Daily Weather History Graph

Daily Weather History Graph

Search for Another Location

Airport:

Trip Planner

Search our weather history database for the weather conditions in past years. The results will help you decide how hot, cold, wet, or windy it might be!

Date:

Astronomy

Jan. 10, 2013 Rise Set
Actual Time 7:15 AM PST 4:48 PM PST
Civil Twilight 6:45 AM PST 5:18 PM PST
Nautical Twilight 6:12 AM PST 5:52 PM PST
Astronomical Twilight 5:39 AM PST 6:24 PM PST
Moon 6:00 AM PST (1/10) 4:01 PM PST (1/10)
Length of Visible Light 10h 32m
Length of Day
9h 32m
Waning Crescent, 1% of the Moon is Illuminated
Jan 10
Waning Crescent
Jan 11
New
Jan 18
First Quarter
Jan 26
Full
Feb 3
Last Quarter

Hourly Weather History & Observations

Time (PST) Temp. Windchill Dew Point Humidity Pressure Visibility Wind Dir Wind Speed Gust Speed Precip Events Conditions
12:53 AM 36.0 °F 25.6 °F 24.1 °F 62% 29.73 in 10.0 mi WNW 18.4 mph 25.3 mph 0.00 in   Overcast
1:53 AM 33.1 °F 25.5 °F 23.0 °F 66% 29.79 in 10.0 mi North 9.2 mph - N/A   Overcast
2:53 AM 33.1 °F 22.6 °F 21.9 °F 64% 29.82 in 10.0 mi NNW 16.1 mph - N/A   Overcast
3:53 AM 30.0 °F 19.5 °F 23.0 °F 75% 29.84 in 10.0 mi WNW 13.8 mph - N/A   Overcast
4:53 AM 28.9 °F 17.3 °F 23.0 °F 78% 29.86 in 10.0 mi WNW 16.1 mph - N/A   Overcast
5:53 AM 26.1 °F 15.0 °F 19.9 °F 78% 29.90 in 10.0 mi WNW 12.7 mph - N/A   Partly Cloudy
6:53 AM 25.0 °F 17.1 °F 18.0 °F 75% 29.91 in 10.0 mi SW 6.9 mph - N/A   Scattered Clouds
7:53 AM 25.0 °F - 17.1 °F 72% 29.94 in 10.0 mi Calm Calm - N/A   Scattered Clouds
8:53 AM 26.1 °F 15.6 °F 18.0 °F 71% 29.96 in 10.0 mi NW 11.5 mph - N/A   Overcast
9:53 AM 28.0 °F - 19.0 °F 69% 29.96 in 10.0 mi Calm Calm - N/A   Overcast
10:53 AM 28.9 °F 16.9 °F 18.0 °F 64% 29.96 in 10.0 mi WNW 17.3 mph - N/A   Mostly Cloudy
11:53 AM 32.0 °F 20.5 °F 17.1 °F 54% 29.92 in 10.0 mi WNW 18.4 mph - N/A   Clear
12:53 PM 30.0 °F 19.5 °F 17.1 °F 59% 29.92 in 10.0 mi NW 13.8 mph - N/A   Mostly Cloudy
1:53 PM 32.0 °F 21.2 °F 15.1 °F 50% 29.92 in 10.0 mi WNW 16.1 mph - N/A   Scattered Clouds
2:53 PM 32.0 °F 21.6 °F 15.1 °F 50% 29.93 in 10.0 mi WNW 15.0 mph - N/A   Mostly Cloudy
3:53 PM 28.9 °F 19.2 °F 14.0 °F 54% 29.94 in 10.0 mi NW 11.5 mph - N/A   Partly Cloudy
4:53 PM 27.0 °F 18.0 °F 17.1 °F 66% 29.95 in 10.0 mi North 9.2 mph - N/A   Mostly Cloudy
5:53 PM 25.0 °F 20.7 °F 17.1 °F 72% 29.97 in 10.0 mi NNE 3.5 mph - N/A   Mostly Cloudy
6:53 PM 27.0 °F 19.5 °F 16.0 °F 63% 29.97 in 10.0 mi North 6.9 mph - N/A   Overcast
7:53 PM 27.0 °F 18.7 °F 16.0 °F 63% 29.98 in 10.0 mi NW 8.1 mph - N/A   Overcast
8:53 PM 24.1 °F 19.7 °F 16.0 °F 71% 29.98 in 10.0 mi NW 3.5 mph - N/A   Overcast
9:53 PM 18.0 °F 9.8 °F 12.9 °F 81% 29.99 in 10.0 mi Variable 5.8 mph - N/A   Clear
10:53 PM 25.0 °F 15.5 °F 19.9 °F 81% 29.99 in 3.0 mi North 9.2 mph - 0.00 in Snow Light Snow
11:53 PM 23.0 °F 14.7 °F 16.0 °F 74% 29.99 in 10.0 mi NE 6.9 mph - 0.00 in   Scattered Clouds